Time,TemperatureF,DewpointF,PressureIn,WindDirection,WindDirectionDegrees,WindSpeedMPH,WindSpeedGustMPH,Humidity,HourlyPrecipIn,Conditions,Clouds,dailyrainin,SolarRadiationWatts/m^2,SoftwareType,DateUTC
2013-01-08 00:00:00,30.0,10.0,-100.00,ENE,63,4.0,16.0,43,0.00,,,0.06,0.000000,,2013-01-08 05:00:00,
2013-01-08 00:22:00,30.0,10.0,-100.00,ENE,63,4.0,16.0,43,0.00,,,0.06,0.000000,,2013-01-08 05:22:00,
2013-01-08 00:33:00,30.0,10.0,-100.00,ENE,63,4.0,16.0,43,0.00,,,0.06,0.000000,,2013-01-08 05:33:00,
2013-01-08 00:43:00,30.0,10.0,-100.00,ENE,63,4.0,16.0,43,0.00,,,0.06,0.000000,,2013-01-08 05:43:00,
2013-01-08 00:53:00,30.0,10.0,-100.00,ENE,63,4.0,16.0,43,0.00,,,0.06,0.000000,,2013-01-08 05:53:00,
2013-01-08 01:00:00,31.0,8.0,-100.00,ENE,63,5.0,9.0,38,0.00,,,0.06,0.000000,,2013-01-08 06:00:00,
2013-01-08 01:22:00,31.0,8.0,-100.00,ENE,63,5.0,9.0,38,0.00,,,0.06,0.000000,,2013-01-08 06:22:00,
2013-01-08 01:33:00,31.0,8.0,-100.00,ENE,63,5.0,9.0,38,0.00,,,0.06,0.000000,,2013-01-08 06:33:00,
2013-01-08 01:43:00,31.0,8.0,-100.00,ENE,63,5.0,9.0,38,0.00,,,0.06,0.000000,,2013-01-08 06:43:00,
2013-01-08 01:53:00,31.0,8.0,-100.00,ENE,63,5.0,9.0,38,0.00,,,0.06,0.000000,,2013-01-08 06:53:00,
2013-01-08 02:00:00,30.0,10.0,-100.00,ENE,62,6.0,10.0,43,0.00,,,0.06,0.000000,,2013-01-08 07:00:00,
2013-01-08 02:32:00,30.0,10.0,-100.00,ENE,62,6.0,10.0,43,0.00,,,0.06,0.000000,,2013-01-08 07:32:00,
2013-01-08 02:42:00,30.0,10.0,-100.00,ENE,62,6.0,10.0,43,0.00,,,0.06,0.000000,,2013-01-08 07:42:00,
2013-01-08 02:52:00,30.0,10.0,-100.00,ENE,62,6.0,10.0,43,0.00,,,0.06,0.000000,,2013-01-08 07:52:00,
2013-01-08 03:00:00,34.0,9.0,-100.00,ENE,62,9.0,16.0,34,0.00,,,0.06,0.000000,,2013-01-08 08:00:00,
2013-01-08 03:22:00,34.0,9.0,-100.00,ENE,62,9.0,16.0,34,0.00,,,0.06,0.000000,,2013-01-08 08:22:00,
2013-01-08 03:32:00,34.0,9.0,-100.00,ENE,62,9.0,16.0,34,0.00,,,0.06,0.000000,,2013-01-08 08:32:00,
2013-01-08 03:42:00,34.0,9.0,-100.00,ENE,62,9.0,16.0,34,0.00,,,0.06,0.000000,,2013-01-08 08:42:00,
2013-01-08 03:53:00,34.0,9.0,-100.00,ENE,62,9.0,16.0,34,0.00,,,0.06,0.000000,,2013-01-08 08:53:00,
2013-01-08 04:00:00,34.0,11.0,-100.00,ENE,64,7.0,18.0,38,0.00,,,0.06,0.000000,,2013-01-08 09:00:00,
2013-01-08 04:22:00,34.0,11.0,-100.00,ENE,64,7.0,18.0,38,0.00,,,0.06,0.000000,,2013-01-08 09:22:00,
2013-01-08 04:33:00,34.0,11.0,-100.00,ENE,64,7.0,18.0,38,0.00,,,0.06,0.000000,,2013-01-08 09:33:00,
2013-01-08 04:42:00,34.0,11.0,-100.00,ENE,64,7.0,18.0,38,0.00,,,0.06,0.000000,,2013-01-08 09:42:00,
2013-01-08 04:53:00,34.0,11.0,-100.00,ENE,64,7.0,18.0,38,0.00,,,0.06,0.000000,,2013-01-08 09:53:00,
2013-01-08 05:00:00,33.0,11.0,-100.00,ENE,66,8.0,15.0,39,0.00,,,0.06,0.000000,,2013-01-08 10:00:00,
2013-01-08 05:33:00,33.0,11.0,-100.00,ENE,66,8.0,15.0,39,0.00,,,0.06,0.000000,,2013-01-08 10:33:00,
2013-01-08 05:43:00,33.0,11.0,-100.00,ENE,66,8.0,15.0,39,0.00,,,0.06,0.000000,,2013-01-08 10:43:00,
2013-01-08 05:53:00,33.0,11.0,-100.00,ENE,66,8.0,15.0,39,0.00,,,0.06,0.000000,,2013-01-08 10:53:00,
2013-01-08 06:00:00,33.0,13.0,-100.00,ENE,70,7.0,15.0,44,0.00,,,0.06,0.000000,,2013-01-08 11:00:00,
2013-01-08 06:33:00,33.0,13.0,-100.00,ENE,70,7.0,15.0,44,0.00,,,0.06,0.000000,,2013-01-08 11:33:00,
2013-01-08 06:43:00,33.0,13.0,-100.00,ENE,70,7.0,15.0,44,0.00,,,0.06,0.000000,,2013-01-08 11:43:00,
2013-01-08 06:53:00,33.0,13.0,-100.00,ENE,70,7.0,15.0,44,0.00,,,0.06,0.000000,,2013-01-08 11:53:00,
2013-01-08 07:00:00,31.0,15.0,-100.00,ENE,68,7.0,15.0,52,0.00,,,0.06,0.000000,,2013-01-08 12:00:00,
2013-01-08 07:33:00,31.0,15.0,-100.00,ENE,68,7.0,15.0,52,0.00,,,0.06,0.000000,,2013-01-08 12:33:00,
2013-01-08 07:43:00,31.0,15.0,-100.00,ENE,68,7.0,15.0,52,0.00,,,0.06,0.000000,,2013-01-08 12:43:00,
2013-01-08 07:53:00,31.0,15.0,-100.00,ENE,68,7.0,15.0,52,0.00,,,0.06,0.000000,,2013-01-08 12:53:00,
2013-01-08 08:00:00,30.0,16.0,-100.00,ENE,68,7.0,15.0,55,0.00,,,0.06,7.000000,,2013-01-08 13:00:00,
2013-01-08 08:33:00,30.0,16.0,-100.00,ENE,68,7.0,15.0,55,0.00,,,0.06,7.000000,,2013-01-08 13:33:00,
2013-01-08 08:43:00,30.0,16.0,-100.00,ENE,68,7.0,15.0,55,0.00,,,0.06,7.000000,,2013-01-08 13:43:00,
2013-01-08 08:53:00,30.0,16.0,-100.00,ENE,68,7.0,15.0,55,0.00,,,0.06,7.000000,,2013-01-08 13:53:00,
2013-01-08 09:00:00,32.0,18.0,-100.00,ENE,67,7.0,15.0,56,0.00,,,0.06,78.000000,,2013-01-08 14:00:00,
2013-01-08 09:33:00,32.0,18.0,-100.00,ENE,67,7.0,15.0,56,0.00,,,0.06,78.000000,,2013-01-08 14:33:00,
2013-01-08 09:43:00,32.0,18.0,-100.00,ENE,67,7.0,15.0,56,0.00,,,0.06,78.000000,,2013-01-08 14:43:00,
2013-01-08 09:53:00,32.0,18.0,-100.00,ENE,67,7.0,15.0,56,0.00,,,0.06,78.000000,,2013-01-08 14:53:00,
2013-01-08 10:00:00,34.0,20.0,-100.00,ENE,70,8.0,15.0,57,0.00,,,0.06,164.000000,,2013-01-08 15:00:00,
2013-01-08 10:23:00,34.0,20.0,-100.00,ENE,70,8.0,15.0,57,0.00,,,0.06,164.000000,,2013-01-08 15:23:00,
2013-01-08 10:33:00,34.0,20.0,-100.00,ENE,70,8.0,15.0,57,0.00,,,0.06,164.000000,,2013-01-08 15:33:00,
2013-01-08 10:43:00,34.0,20.0,-100.00,ENE,70,8.0,15.0,57,0.00,,,0.06,164.000000,,2013-01-08 15:43:00,
2013-01-08 10:53:00,34.0,20.0,-100.00,ENE,70,8.0,15.0,57,0.00,,,0.06,164.000000,,2013-01-08 15:53:00,
2013-01-08 11:00:00,37.0,25.0,-100.00,ENE,75,6.0,15.0,61,0.00,,,0.06,381.000000,,2013-01-08 16:00:00,
2013-01-08 11:34:00,37.0,25.0,-100.00,ENE,75,6.0,15.0,61,0.00,,,0.06,381.000000,,2013-01-08 16:34:00,
2013-01-08 11:43:00,37.0,25.0,-100.00,ENE,75,6.0,15.0,61,0.00,,,0.06,381.000000,,2013-01-08 16:43:00,
2013-01-08 11:53:00,37.0,25.0,-100.00,ENE,75,6.0,15.0,61,0.00,,,0.06,381.000000,,2013-01-08 16:53:00,
2013-01-08 12:00:00,39.0,25.0,-100.00,ENE,68,9.0,17.0,58,0.00,,,0.06,446.000000,,2013-01-08 17:00:00,
2013-01-08 12:34:00,39.0,25.0,-100.00,ENE,68,9.0,17.0,58,0.00,,,0.06,446.000000,,2013-01-08 17:34:00,
2013-01-08 12:43:00,39.0,25.0,-100.00,ENE,68,9.0,17.0,58,0.00,,,0.06,446.000000,,2013-01-08 17:43:00,
2013-01-08 12:54:00,39.0,25.0,-100.00,ENE,68,9.0,17.0,58,0.00,,,0.06,446.000000,,2013-01-08 17:54:00,
2013-01-08 13:00:00,40.0,26.0,-100.00,ENE,69,7.0,16.0,56,0.00,,,0.06,590.000000,,2013-01-08 18:00:00,
2013-01-08 13:24:00,40.0,26.0,-100.00,ENE,69,7.0,16.0,56,0.00,,,0.06,590.000000,,2013-01-08 18:24:00,
2013-01-08 13:33:00,40.0,26.0,-100.00,ENE,69,7.0,16.0,56,0.00,,,0.06,590.000000,,2013-01-08 18:33:00,
2013-01-08 13:43:00,40.0,26.0,-100.00,ENE,69,7.0,16.0,56,0.00,,,0.06,590.000000,,2013-01-08 18:43:00,
2013-01-08 13:53:00,40.0,26.0,-100.00,ENE,69,7.0,16.0,56,0.00,,,0.06,590.000000,,2013-01-08 18:53:00,
2013-01-08 14:00:00,42.0,26.0,-100.00,ENE,76,4.0,12.0,53,0.00,,,0.02,461.000000,,2013-01-08 19:00:00,
2013-01-08 14:33:00,42.0,26.0,-100.00,ENE,76,4.0,12.0,53,0.00,,,0.02,461.000000,,2013-01-08 19:33:00,
2013-01-08 14:43:00,42.0,26.0,-100.00,ENE,76,4.0,12.0,53,0.00,,,0.02,461.000000,,2013-01-08 19:43:00,
2013-01-08 14:53:00,42.0,26.0,-100.00,ENE,76,4.0,12.0,53,0.00,,,0.02,461.000000,,2013-01-08 19:53:00,
2013-01-08 15:00:00,42.0,25.0,-100.00,ENE,74,4.0,8.0,50,0.00,,,0.00,465.000000,,2013-01-08 20:00:00,
2013-01-08 15:23:00,42.0,25.0,-100.00,ENE,74,4.0,8.0,50,0.00,,,0.00,465.000000,,2013-01-08 20:23:00,
2013-01-08 15:33:00,42.0,25.0,-100.00,ENE,74,4.0,8.0,50,0.00,,,0.00,465.000000,,2013-01-08 20:33:00,
2013-01-08 15:43:00,42.0,25.0,-100.00,ENE,74,4.0,8.0,50,0.00,,,0.00,465.000000,,2013-01-08 20:43:00,
2013-01-08 15:54:00,42.0,25.0,-100.00,ENE,74,4.0,8.0,50,0.00,,,0.00,465.000000,,2013-01-08 20:54:00,
2013-01-08 16:00:00,38.0,22.0,-100.00,ENE,68,4.0,9.0,51,0.00,,,0.00,127.000000,,2013-01-08 21:00:00,
2013-01-08 16:33:00,38.0,22.0,-100.00,ENE,68,4.0,9.0,51,0.00,,,0.00,127.000000,,2013-01-08 21:33:00,
2013-01-08 16:43:00,38.0,22.0,-100.00,ENE,68,4.0,9.0,51,0.00,,,0.00,127.000000,,2013-01-08 21:43:00,
2013-01-08 16:53:00,38.0,22.0,-100.00,ENE,68,4.0,9.0,51,0.00,,,0.00,127.000000,,2013-01-08 21:53:00,
2013-01-08 17:00:00,35.0,23.0,-100.00,East,88,3.0,7.0,60,0.00,,,0.00,34.000000,,2013-01-08 22:00:00,
2013-01-08 17:33:00,35.0,23.0,-100.00,East,88,3.0,7.0,60,0.00,,,0.00,34.000000,,2013-01-08 22:33:00,
2013-01-08 17:43:00,35.0,23.0,-100.00,East,88,3.0,7.0,60,0.00,,,0.00,34.000000,,2013-01-08 22:43:00,
2013-01-08 17:53:00,35.0,23.0,-100.00,East,88,3.0,7.0,60,0.00,,,0.00,34.000000,,2013-01-08 22:53:00,
2013-01-08 18:00:00,33.0,21.0,-100.00,ENE,66,1.0,5.0,60,0.00,,,0.00,2.000000,,2013-01-08 23:00:00,
2013-01-08 18:33:00,33.0,21.0,-100.00,ENE,66,1.0,5.0,60,0.00,,,0.00,2.000000,,2013-01-08 23:33:00,
2013-01-08 18:43:00,33.0,21.0,-100.00,ENE,66,1.0,5.0,60,0.00,,,0.00,2.000000,,2013-01-08 23:43:00,
2013-01-08 18:53:00,33.0,21.0,-100.00,ENE,66,1.0,5.0,60,0.00,,,0.00,2.000000,,2013-01-08 23:53:00,
2013-01-08 19:00:00,32.0,20.0,-100.00,NE,56,4.0,6.0,61,0.00,,,0.00,0.000000,,2013-01-09 00:00:00,
2013-01-08 19:33:00,32.0,20.0,-100.00,NE,56,4.0,6.0,61,0.00,,,0.00,0.000000,,2013-01-09 00:33:00,
2013-01-08 19:43:00,32.0,20.0,-100.00,NE,56,4.0,6.0,61,0.00,,,0.00,0.000000,,2013-01-09 00:43:00,
2013-01-08 19:53:00,32.0,20.0,-100.00,NE,56,4.0,6.0,61,0.00,,,0.00,0.000000,,2013-01-09 00:53:00,
2013-01-08 20:00:00,34.0,21.0,-100.00,ENE,57,6.0,7.0,58,0.00,,,0.00,0.000000,,2013-01-09 01:00:00,
2013-01-08 20:33:00,34.0,21.0,-100.00,ENE,57,6.0,7.0,58,0.00,,,0.00,0.000000,,2013-01-09 01:33:00,
2013-01-08 20:43:00,34.0,21.0,-100.00,ENE,57,6.0,7.0,58,0.00,,,0.00,0.000000,,2013-01-09 01:43:00,
2013-01-08 20:53:00,34.0,21.0,-100.00,ENE,57,6.0,7.0,58,0.00,,,0.00,0.000000,,2013-01-09 01:53:00,
2013-01-08 21:00:00,34.0,20.0,-100.00,ENE,58,6.0,9.0,57,0.00,,,0.00,0.000000,,2013-01-09 02:00:00,
2013-01-08 21:33:00,34.0,20.0,-100.00,ENE,58,6.0,9.0,57,0.00,,,0.00,0.000000,,2013-01-09 02:33:00,
2013-01-08 21:43:00,34.0,20.0,-100.00,ENE,58,6.0,9.0,57,0.00,,,0.00,0.000000,,2013-01-09 02:43:00,
2013-01-08 21:53:00,34.0,20.0,-100.00,ENE,58,6.0,9.0,57,0.00,,,0.00,0.000000,,2013-01-09 02:53:00,
2013-01-08 22:00:00,35.0,19.0,-100.00,ENE,60,6.0,10.0,52,0.00,,,0.00,0.000000,,2013-01-09 03:00:00,
2013-01-08 22:33:00,35.0,19.0,-100.00,ENE,60,6.0,10.0,52,0.00,,,0.00,0.000000,,2013-01-09 03:33:00,
2013-01-08 22:43:00,35.0,19.0,-100.00,ENE,60,6.0,10.0,52,0.00,,,0.00,0.000000,,2013-01-09 03:43:00,
2013-01-08 22:53:00,35.0,19.0,-100.00,ENE,60,6.0,10.0,52,0.00,,,0.00,0.000000,,2013-01-09 03:53:00,
2013-01-08 23:00:00,34.0,17.0,-100.00,ENE,63,5.0,13.0,50,0.00,,,0.00,0.000000,,2013-01-09 04:00:00,
2013-01-08 23:23:00,34.0,17.0,-100.00,ENE,63,5.0,13.0,50,0.00,,,0.00,0.000000,,2013-01-09 04:23:00,
2013-01-08 23:33:00,34.0,17.0,-100.00,ENE,63,5.0,13.0,50,0.00,,,0.00,0.000000,,2013-01-09 04:33:00,
2013-01-08 23:43:00,34.0,17.0,-100.00,ENE,63,5.0,13.0,50,0.00,,,0.00,0.000000,,2013-01-09 04:43:00,
2013-01-08 23:52:00,34.0,17.0,-100.00,ENE,63,5.0,13.0,50,0.00,,,0.00,0.000000,,2013-01-09 04:52:00,